• en Suisse
  • Liste des pays
  • À 7 jours
  • Température de l'eau
  • Carte satellitaire
  • Carte météo
  • Widgets météo
  • user-avatar
    Se connecter

    Météo par heure à Korçё

    Ce jour, 13 Novembre, Mardi

    Heure Température Précipitation Vent Pression Humidité
    00:00 +7°C° 0 mm 1 m/s 673 mmHg 51%
    01:00 +7°C° 0 mm 1 m/s 673 mmHg 51%
    02:00 +6°C° 0 mm 1 m/s 673 mmHg 51%
    03:00 +6°C° 0 mm 1 m/s 672 mmHg 52%
    04:00 +6°C° 0 mm 1 m/s 672 mmHg 52%
    05:00 +6°C° 0 mm 1 m/s 672 mmHg 53%
    06:00 +6°C° 0 mm 1 m/s 673 mmHg 53%
    07:00 +5°C° 0 mm 2 m/s 673 mmHg 54%
    08:00 +8°C° 0 mm 1 m/s 673 mmHg 48%
    09:00 +11°C° 0 mm 1 m/s 674 mmHg 42%
    10:00 +13°C° 0 mm 1 m/s 675 mmHg 35%
    11:00 +14°C° 0 mm 1 m/s 675 mmHg 34%
    12:00 +15°C° 0 mm 1 m/s 675 mmHg 32%
    13:00 +16°C° 0 mm 1 m/s 675 mmHg 30%
    14:00 +15°C° 0 mm 1 m/s 674 mmHg 35%
    15:00 +13°C° 0 mm 1 m/s 673 mmHg 40%
    16:00 +12°C° 0 mm 1 m/s 673 mmHg 45%
    17:00 +11°C° 0 mm 1 m/s 673 mmHg 48%
    18:00 +10°C° 0 mm 1 m/s 673 mmHg 51%
    19:00 +9°C° 0 mm 1 m/s 672 mmHg 54%
    20:00 +8°C° 0 mm 1 m/s 672 mmHg 55%
    21:00 +8°C° 0 mm 1 m/s 672 mmHg 55%
    22:00 +8°C° 0 mm 1 m/s 672 mmHg 56%
    23:00 +7°C° 0 mm 1 m/s 672 mmHg 56%

    Demain, 14 Novembre, Mercredi

    Heure Température Précipitation Vent Pression Humidité
    00:00 +7°C° 0 mm 1 m/s 672 mmHg 56%
    01:00 +7°C° 0 mm 1 m/s 672 mmHg 56%
    02:00 +7°C° 0 mm 1 m/s 671 mmHg 56%
    03:00 +6°C° 0 mm 1 m/s 671 mmHg 56%
    04:00 +6°C° 0 mm 1 m/s 671 mmHg 57%
    05:00 +6°C° 0 mm 1 m/s 671 mmHg 57%
    06:00 +6°C° 0 mm 1 m/s 671 mmHg 57%
    07:00 +6°C° 0 mm 1 m/s 671 mmHg 57%
    08:00 +9°C° 0 mm 1 m/s 672 mmHg 50%
    09:00 +11°C° 0 mm 1 m/s 672 mmHg 44%
    10:00 +14°C° 0 mm 1 m/s 673 mmHg 37%
    11:00 +14°C° 0 mm 1 m/s 672 mmHg 35%
    12:00 +15°C° 0 mm 2 m/s 672 mmHg 34%
    13:00 +16°C° 0 mm 2 m/s 672 mmHg 32%
    14:00 +15°C° 0 mm 2 m/s 672 mmHg 37%
    15:00 +14°C° 0 mm 2 m/s 671 mmHg 43%
    16:00 +12°C° 0 mm 2 m/s 671 mmHg 48%
    17:00 +11°C° 0 mm 1 m/s 670 mmHg 52%
    18:00 +10°C° 0 mm 1 m/s 670 mmHg 55%
    19:00 +9°C° 0 mm 1 m/s 670 mmHg 59%
    20:00 +9°C° 0 mm 1 m/s 670 mmHg 62%
    21:00 +7°C° 0 mm 2 m/s 670 mmHg 65%
    22:00 +7°C° 0 mm 2 m/s 670 mmHg 68%
    23:00 +6°C° 0 mm 2 m/s 670 mmHg 71%

    Après-demain, 15 Novembre, Jeudi

    Heure Température Précipitation Vent Pression Humidité
    00:00 +6°C° 0 mm 2 m/s 670 mmHg 74%
    01:00 +6°C° 0 mm 2 m/s 669 mmHg 77%
    02:00 +5°C° 0 mm 2 m/s 669 mmHg 78%
    03:00 +5°C° 0 mm 2 m/s 669 mmHg 79%
    04:00 +4°C° 0 mm 2 m/s 669 mmHg 80%
    05:00 +4°C° 0 mm 2 m/s 669 mmHg 80%
    06:00 +4°C° 0 mm 2 m/s 669 mmHg 79%
    07:00 +4°C° 0 mm 2 m/s 669 mmHg 78%
    08:00 +6°C° 0 mm 2 m/s 669 mmHg 67%
    09:00 +8°C° 0 mm 2 m/s 670 mmHg 56%
    10:00 +10°C° 0 mm 2 m/s 670 mmHg 45%
    11:00 +10°C° 0 mm 2 m/s 670 mmHg 42%
    12:00 +12°C° 0 mm 2 m/s 670 mmHg 39%
    13:00 +13°C° 0 mm 2 m/s 670 mmHg 36%
    14:00 +12°C° 0 mm 2 m/s 669 mmHg 39%
    15:00 +9°C° 0 mm 2 m/s 669 mmHg 43%
    16:00 +8°C° 0 mm 2 m/s 669 mmHg 46%
    17:00 +7°C° 0 mm 2 m/s 669 mmHg 49%
    18:00 +6°C° 0 mm 2 m/s 669 mmHg 51%
    19:00 +5°C° 0 mm 2 m/s 669 mmHg 54%
    20:00 +4°C° 0 mm 2 m/s 669 mmHg 56%
    21:00 +3°C° 0 mm 2 m/s 669 mmHg 59%
    22:00 +3°C° 0 mm 2 m/s 669 mmHg 61%
    23:00 +2°C° 0 mm 2 m/s 669 mmHg 63%

    16 Novembre, Vendredi

    Heure Température Précipitation Vent Pression Humidité
    00:00 +2°C° 0 mm 2 m/s 669 mmHg 66%
    01:00 +1°C° 0 mm 2 m/s 669 mmHg 68%
    02:00 +1°C° 0 mm 2 m/s 669 mmHg 69%
    03:00 +1°C° 0 mm 2 m/s 668 mmHg 71%
    04:00 +1°C° 0 mm 2 m/s 668 mmHg 72%
    05:00 +1°C° 0 mm 2 m/s 669 mmHg 73%
    06:00 +1°C° 0 mm 2 m/s 669 mmHg 74%
    07:00 -1°C° 0 mm 2 m/s 669 mmHg 74%
    08:00 +2°C° 0 mm 2 m/s 669 mmHg 65%
    09:00 +3°C° 0 mm 3 m/s 670 mmHg 56%
    10:00 +5°C° 0 mm 3 m/s 671 mmHg 46%
    11:00 +7°C° 0 mm 3 m/s 671 mmHg 44%
    12:00 +8°C° 0 mm 2 m/s 670 mmHg 41%
    13:00 +8°C° 0 mm 2 m/s 670 mmHg 38%
    14:00 +7°C° 0 mm 2 m/s 670 mmHg 42%
    15:00 +6°C° 0 mm 2 m/s 670 mmHg 46%
    16:00 +6°C° 0 mm 2 m/s 669 mmHg 51%
    17:00 +4°C° 0 mm 2 m/s 669 mmHg 55%
    18:00 +3°C° 0 mm 2 m/s 669 mmHg 59%
    19:00 +2°C° 0 mm 2 m/s 669 mmHg 63%
    20:00 +2°C° 0 mm 2 m/s 669 mmHg 65%
    21:00 +2°C° 0 mm 2 m/s 670 mmHg 68%
    22:00 +1°C° 0 mm 2 m/s 670 mmHg 70%
    23:00 +1°C° 0 mm 2 m/s 670 mmHg 72%

    17 Novembre, Samedi

    Heure Température Précipitation Vent Pression Humidité
    00:00 +1°C° 0 mm 2 m/s 669 mmHg 73%
    01:00 +1°C° 0 mm 2 m/s 669 mmHg 75%
    02:00 -1°C° 0 mm 2 m/s 669 mmHg 76%
    03:00 -1°C° 0 mm 2 m/s 669 mmHg 77%
    04:00 -1°C° 0 mm 2 m/s 669 mmHg 78%
    05:00 -1°C° 0 mm 3 m/s 669 mmHg 78%
    06:00 -1°C° 0 mm 3 m/s 669 mmHg 78%
    07:00 -1°C° 0 mm 3 m/s 669 mmHg 77%
    08:00 +1°C° 0 mm 3 m/s 669 mmHg 71%
    09:00 +2°C° 0 mm 3 m/s 670 mmHg 65%
    10:00 +4°C° 0 mm 3 m/s 670 mmHg 58%
    11:00 +4°C° 0 mm 3 m/s 670 mmHg 57%
    12:00 +4°C° 0 mm 4 m/s 670 mmHg 56%
    13:00 +5°C° 0 mm 4 m/s 669 mmHg 56%
    14:00 +4°C° 0 mm 3 m/s 669 mmHg 58%
    15:00 +3°C° 0 mm 3 m/s 669 mmHg 61%
    16:00 +3°C° 0 mm 3 m/s 669 mmHg 64%
    17:00 +2°C° 0.1 mm 3 m/s 669 mmHg 66%
    18:00 +2°C° 0.1 mm 3 m/s 668 mmHg 69%
    19:00 +2°C° 0.1 mm 3 m/s 668 mmHg 71%
    20:00 +1°C° 0.3 mm 3 m/s 668 mmHg 72%
    21:00 0°C° 0.3 mm 4 m/s 668 mmHg 74%
    22:00 0°C° 0.3 mm 4 m/s 668 mmHg 75%
    23:00 0°C° 1 mm 4 m/s 668 mmHg 78%

    18 Novembre, Dimanche

    Heure Température Précipitation Vent Pression Humidité
    00:00 -1°C° 1 mm 4 m/s 667 mmHg 81%
    01:00 -1°C° 1 mm 4 m/s 667 mmHg 83%
    02:00 -1°C° 1.6 mm 4 m/s 666 mmHg 84%
    03:00 -1°C° 1.6 mm 4 m/s 666 mmHg 85%
    04:00 -2°C° 1.6 mm 4 m/s 665 mmHg 86%
    05:00 -2°C° 1.6 mm 4 m/s 665 mmHg 86%
    06:00 -2°C° 1.6 mm 4 m/s 665 mmHg 86%
    07:00 -2°C° 1.6 mm 5 m/s 664 mmHg 87%
    08:00 -1°C° 1 mm 5 m/s 664 mmHg 86%
    09:00 -1°C° 1 mm 5 m/s 664 mmHg 86%
    10:00 -1°C° 1 mm 5 m/s 664 mmHg 85%
    11:00 0°C° 0.3 mm 5 m/s 664 mmHg 85%
    12:00 0°C° 0.3 mm 5 m/s 663 mmHg 86%
    13:00 0°C° 0.3 mm 5 m/s 663 mmHg 86%
    14:00 0°C° 0.3 mm 5 m/s 662 mmHg 86%
    15:00 0°C° 0.3 mm 4 m/s 662 mmHg 86%
    16:00 0°C° 0.3 mm 4 m/s 662 mmHg 86%
    17:00 0°C° 0.3 mm 4 m/s 661 mmHg 86%
    18:00 0°C° 0.3 mm 4 m/s 661 mmHg 87%
    19:00 0°C° 0.3 mm 4 m/s 661 mmHg 87%
    20:00 0°C° 0.7 mm 4 m/s 660 mmHg 87%
    21:00 0°C° 0.7 mm 4 m/s 660 mmHg 88%
    22:00 0°C° 0.7 mm 4 m/s 660 mmHg 89%
    23:00 0°C° 1.4 mm 4 m/s 659 mmHg 90%
    Voir plus